Hourly Weather Roundup
Issued by NWS Central Illinois

Home | Current Version | Previous Version | Text Only | Print | Product List | Glossary On
Versions: 1 2 3 4 5 6 7 8 9 10 11 12 13 14 15 16 17 18 19 20 21 22 23 24 25 26 27 28 29 30 31 32 33 34 35 36 37 38 39 40 41 42 43 44 45 46 47 48 49 50
000
NZUS43 KILX 300010
HWRILX

Area Weather Roundup
National Weather Service Lincoln IL
700 PM CDT SAT APR 29 2017

NOTE:  "FAIR" indicates few or no clouds below 12,000 feet, with
       no sigificant weather and/or obstructions to visibility.


CITY           SKY/WX    TMP DP  RH WIND       PRES   REMARKS
Bloomington    RAIN      45  45 100 W10G22    29.94R FOG
6HR MIN TEMP:  44; 6HR MAX TEMP:  46; 6HR PCP:  0.12;

Champaign      HVY RAIN  58  56  93 E12G31    29.86R FOG
6HR MIN TEMP:  53; 6HR MAX TEMP:  57; 6HR PCP:  0.38;

Danville       CLOUDY    55  55  99 E15G24    29.84F FOG
6HR MIN TEMP:  55; 6HR MAX TEMP:  57;

Decatur        RAIN      61  61 100 S16       29.84R
6HR MIN TEMP:  52; 6HR MAX TEMP:  61; 6HR PCP:  0.28;

Effingham      TSTM      63  63 100 S6        29.87R
6HR MIN TEMP:  63; 6HR MAX TEMP:  76; 6HR PCP:  0.16;

Flora          TSTM      69  62  78 W10G28    29.90R
6HR MIN TEMP:  69; 6HR MAX TEMP:  81; 6HR PCP:  0.04;

Galesburg      LGT RAIN  40  39  97 NE20G28   29.91F WCI  31
6HR MIN TEMP:  39; 6HR MAX TEMP:  42; 6HR PCP:  0.85;

Jacksonville   RAIN      44  43  96 N6        29.91R
Lacon          HVY RAIN  42  42 100 N8G26     29.93R
6HR MIN TEMP:  40; 6HR MAX TEMP:  42; 6HR PCP:  2.57;

Lawrenceville  CLOUDY    77  70  79 S8        29.84R
6HR MIN TEMP:  75; 6HR MAX TEMP:  80;

Litchfield     DRIZZLE   55  54  99 NW8       29.87R
$$


CITY           SKY/WX    TMP DP  RH WIND       PRES   REMARKS
Lincoln        LGT RAIN  46  46  98 N16G23    29.87R
6HR MIN TEMP:  46; 6HR MAX TEMP:  50; 6HR PCP:  0.60;

Macomb         LGT SNOW  42  42  99 E31G39    29.89F WCI  31
6HR MIN TEMP:  41; 6HR MAX TEMP:  45; 6HR PCP:  1.20;

Mattoon        TSTM      62  60  93 SW14G33   29.83R FOG
6HR MIN TEMP:  58; 6HR MAX TEMP:  73; 6HR PCP:  0.04;

Mt Carmel AP   MOCLDY    79  68  69 S8        29.83R HX  81
6HR MIN TEMP:  74; 6HR MAX TEMP:  81;

Olney-Noble AP CLOUDY    77  72  84 SW7       29.84R
Paris AP       CLOUDY   N/A N/A N/A NE16      29.83F
Peoria         RAIN      43  42  97 NE22G31   29.92R FOG     WCI  34
6HR MIN TEMP:  41; 6HR MAX TEMP:  46; 6HR PCP:  2.53;

Pontiac        TSTM      44  44  98 NE36G46   29.85F WCI  34
6HR MIN TEMP:  43; 6HR MAX TEMP:  46; 6HR PCP:  0.39;

Rantoul        CLOUDY    55  55  99 NE29G37   29.81F FOG
6HR MIN TEMP:  52; 6HR MAX TEMP:  55;

Robinson       CLOUDY    75  68  77 SE9       29.84S
6HR MIN TEMP:  72; 6HR MAX TEMP:  78;

Springfield    RAIN      47  45  93 N16G26    29.87R FOG
6HR MIN TEMP:  47; 6HR MAX TEMP:  53; 6HR PCP:  0.59;

Taylorville    RAIN      51  50  96 NW6       29.85R
6HR MIN TEMP:  51; 6HR MAX TEMP:  63; 6HR PCP:  0.63;

$$

...REGIONAL REPORTS...


CITY           SKY/WX    TMP DP  RH WIND       PRES   REMARKS
Chicago O`Hare TSTM      40  38  93 NE21G31   30.10F FOG     WCI  30
Kankakee       CLOUDY    44  43  95 NE28G36   29.96F WCI  34
Moline         LGT RAIN  41  36  82 NE24G36   29.88F WCI  31
Mount Sterling DRIZZLE   44  43  98 E18       29.83F
Mount Vernon   TSTM      64  63  94 VRB6      29.86R FOG
Pittsfield     LGT RAIN  44  43  96 NE18      29.88F
Quincy         LGT RAIN  43  42  97 NE13      29.87F
Rockford       LGT RAIN  40  36  86 NE21G33   30.08F FOG     WCI  30
$$


CITY           SKY/WX    TMP DP  RH WIND       PRES   REMARKS
Burlington     CLOUDY    41  41 100 NE18G32   29.89S WCI  32
Cedar Rapids   CLOUDY    42  38  85 NE28G37   29.96F WCI  32
Des Moines     DRIZZLE   43  38  82 NE17      30.00F
Kirksville     CLOUDY    42  30  62 NE16G25   29.88R WCI  34
Ottumwa        LGT RAIN  42  41  96 NE18G31   29.93R FOG     WCI  34
St Louis       TSTM      56  54  93 W6        29.88R FOG
$$


CITY           SKY/WX    TMP DP  RH WIND       PRES   REMARKS
Terre Haute    CLOUDY    73  65  75 E6        29.85S
Evansville     CLOUDY    84  66  54 S12G20    29.86R HX  86
Indianapolis   CLOUDY    66  62  87 NE17      29.91R
Lafayette      CLOUDY    52  52 100 E21G30    29.94F FOG
Madison        LGT RAIN  38  34  85 NE20G26   30.17F WCI  28
Milwaukee      LGT RAIN  39  36  89 N17G25    30.20F FOG     WCI  30
$$






USA.gov is the U.S. government's official web portal to all federal, state and local government web resources and services.